Wetbulb
14.91 14.96 13.13 10.40 9.49 7.52 7.34 10.62 12.30 8.72 5.66 7.24 11.19 12.20 15.13 15.05 16.38 17.16 17.41 18.79 20.04 21.10 23.27 25.37 26.64 27.67 29.31 31.42 33.00 37.71 42.09 50.15 52.76 52.34 52.13 49.76 45.08 43.10 41.97 41.10 40.15 39.68 38.63 37.93
13.44 16.66 14.16 8.16 9.55 8.09 6.14 6.25 7.66 10.74 7.69 11.55 13.79 14.97 14.45 13.70 14.47 14.81 15.87 17.74 19.22 20.32 21.99 23.96 25.18 26.35 28.18 29.94 31.45 34.70 40.03 44.03 51.09 51.89 51.21 49.50 44.15 42.62 40.95 39.97 39.49 38.73 37.61 36.85
12.34 16.89 15.49 5.11 6.50 7.51 5.16 5.76 6.23 1.46 6.49 11.07 10.15 11.71 13.94 12.90 13.75 13.79 15.13 17.04 18.02 19.03 21.03 23.16 24.56 26.04 26.70 28.32 30.87 33.54 38.62 41.34 46.53 49.41 49.01 48.07 44.05 42.05 40.03 38.89 38.55 37.57 36.66 35.53
7.77 8.52 -2.68 7.53 13.14 10.05 5.51 6.30 7.34 7.74 9.11 10.22 10.34 12.14 15.54 14.84 13.25 14.05 15.54 16.37 17.57 19.44 20.61 23.26 24.49 25.61 26.71 28.15 29.94 32.53 36.60 39.02 41.46 43.97 45.35 42.58 41.95 40.77 39.62 38.29 37.25 36.25 35.29 34.40
1.95 -3.22 2.39 8.24 9.46 7.44 6.56 2.90 8.66 6.82 8.37 9.62 11.29 13.54 15.07 15.17 14.87 15.04 16.08 17.29 18.48 20.22 21.74 22.78 23.86 24.59 25.18 26.72 28.67 31.01 34.24 36.57 38.04 39.82 39.91 40.11 39.65 39.31 38.18 36.90 35.75 34.54 33.59 32.76
3.01 -3.76 -7.27 -0.43 4.28 9.77 12.05 3.15 9.04 8.62 7.88 7.75 9.44 4.97 9.96 13.13 14.64 15.40 16.80 17.95 18.34 19.88 21.66 22.60 22.87 23.77 24.26 25.19 27.07 28.82 32.33 34.21 36.18 37.21 38.03 38.17 37.84 36.65 36.53 35.75 33.72 32.33 31.44 32.16
-4.31 -6.26 -0.98 2.83 5.71 7.38 -0.34 -0.74 8.24 9.04 8.70 8.21 4.97 7.79 10.94 13.63 14.24 15.72 16.41 17.46 19.43 19.45 19.93 21.79 22.96 23.58 23.14 24.03 25.02 28.34 30.65 33.04 34.18 35.03 35.20 35.72 35.08 34.02 33.78 31.82 30.26 29.83 29.29 29.56
-6.04 -12.24 -4.99 9.52 7.86 -1.36 -0.52 4.11 8.28 8.38 7.79 7.82 9.08 10.06 11.28 12.32 13.32 14.02 14.79 16.27 18.31 18.38 19.83 21.26 22.74 23.01 22.53 22.92 25.65 27.92 29.39 31.63 32.61 32.89 32.12 32.10 30.95 30.56 30.50 29.74 28.91 27.88 27.65 28.73
-0.23 -2.93 2.11 6.65 2.41 2.66 6.81 6.57 8.47 8.55 9.97 9.36 8.49 9.46 10.36 11.13 11.75 12.90 13.94 15.15 17.19 17.63 19.21 20.55 22.03 22.96 22.26 23.48 24.75 27.00 28.32 30.28 31.67 30.85 29.74 30.09 29.59 28.46 28.36 28.80 28.03 27.35 28.33 28.91
6.00 6.67 8.47 6.67 9.99 10.25 5.25 4.53 8.25 10.42 9.67 9.99 7.65 8.68 9.10 9.42 10.88 11.81 13.38 14.38 16.48 17.98 17.48 18.15 20.43 22.17 22.86 23.93 25.41 26.73 27.44 28.94 29.67 28.68 28.61 28.82 28.71 28.87 28.41 28.05 27.78 28.01 28.57 29.06
6.31 8.36 10.12 10.72 8.81 7.44 8.46 9.43 9.41 9.92 10.70 9.79 9.62 9.02 9.28 9.18 9.98 11.73 13.43 15.04 16.95 16.66 16.73 17.34 19.52 20.78 21.68 23.30 23.97 24.59 27.14 27.31 27.85 28.84 27.69 27.38 27.94 28.12 28.57 29.10 30.14 29.15 29.92 30.75
2.35 8.67 7.69 8.04 10.88 10.71 8.32 7.88 8.98 9.33 7.77 9.02 9.75 9.04 10.58 10.12 11.91 13.00 15.05 16.68 15.91 16.69 16.99 18.37 18.92 18.56 19.56 20.75 20.06 21.46 25.07 26.33 27.32 27.11 26.92 27.09 26.90 27.72 31.21 31.20 32.90 33.48 33.78 33.01
6.30 10.14 10.75 11.68 11.86 12.24 9.83 9.72 9.30 7.12 7.34 7.09 7.95 9.56 9.98 10.76 12.99 19.31 15.78 16.28 17.02 18.21 18.99 18.92 16.59 16.67 16.46 18.55 20.23 18.19 21.69 25.59 27.23 26.74 26.24 25.81 26.68 26.63 26.16 30.52 33.69 34.05 34.59 35.06
10.68 9.78 8.40 10.29 8.16 10.79 10.68 10.72 11.10 8.32 7.58 7.29 7.79 8.15 9.57 10.17 12.63 13.89 15.34 17.18 18.86 19.16 17.45 17.14 16.81 15.54 17.03 17.79 21.62 16.87 19.94 27.77 26.31 25.74 26.03 26.36 26.61 26.74 27.30 27.48 27.38 28.78 33.76 34.58
9.08 10.52 10.28 10.84 11.16 10.25 10.66 10.07 8.46 7.43 7.40 5.90 4.93 4.19 6.80 8.13 10.02 12.76 15.68 18.16 18.72 17.93 18.12 17.13 16.44 17.77 19.92 19.80 21.04 16.51 21.41 24.93 25.38 26.12 26.67 27.38 27.44 27.63 27.99 27.78 27.57 28.46 30.58 33.70
8.65 9.42 9.31 8.15 8.29 9.00 9.04 7.65 6.39 6.26 6.96 7.05 4.42 5.27 6.83 9.03 10.60 12.70 15.45 17.54 16.53 16.64 18.05 19.41 20.18 21.21 20.94 21.37 22.07 22.40 24.33 27.65 27.41 26.68 27.02 27.73 28.04 28.05 27.98 27.81 28.03 28.54 29.22 30.06
3.35 3.63 5.86 5.36 6.40 6.85 7.00 8.17 7.58 7.04 7.00 7.75 8.23 7.85 6.02 6.53 9.15 11.42 13.66 17.10 17.62 17.87 19.25 20.02 20.63 23.55 22.80 21.97 20.40 21.20 22.97 27.09 29.17 26.03 25.91 26.00 26.56 26.16 25.66 23.40 21.88 21.76 22.38 25.40
6.55 7.49 8.57 7.44 6.15 6.21 6.96 8.41 8.64 8.24 7.59 8.79 9.42 9.43 6.21 4.44 7.84 11.12 13.85 16.93 17.00 17.62 20.28 21.00 23.74 24.20 24.28 23.30 22.14 22.38 22.58 22.93 23.61 23.18 23.49 23.21 22.95 22.98 22.85 23.04 23.41 23.20 23.63 25.00
5.34 5.52 6.74 7.69 8.19 7.37 7.63 8.28 8.79 9.36 9.50 9.23 8.73 8.32 9.35 9.19 10.61 12.24 13.98 15.18 15.65 16.61 18.85 21.49 24.65 23.30 23.10 25.94 23.27 22.60 22.75 23.06 23.06 23.22 24.00 24.93 22.75 22.58 21.81 20.80 19.35 18.46 18.24 18.03
2.57 4.81 5.42 6.19 8.00 8.12 7.43 8.88 9.53 9.16 9.85 9.55 9.72 9.40 9.56 11.14 10.95 11.04 12.55 12.43 14.56 18.75 21.07 22.45 22.22 21.89 22.15 24.59 24.59 22.22 21.82 21.40 20.81 20.75 20.74 20.27 19.90 19.58 19.91 20.08 18.10 17.54 17.26 17.00
1.91 3.76 3.81 4.67 5.52 8.09 8.57 8.92 9.14 8.73 9.78 10.30 9.37 8.83 9.72 11.67 10.93 11.03 10.94 11.05 14.79 20.43 20.41 22.39 22.81 21.44 22.59 21.66 21.34 20.56 20.30 20.06 20.07 19.89 19.56 18.90 17.99 17.58 17.22 17.19 16.95 16.68 16.28 16.08
1.79 1.88 3.21 4.76 5.73 6.56 8.33 9.11 9.23 10.33 10.07 9.72 9.84 9.81 9.87 9.75 10.50 10.60 12.00 10.94 16.11 22.17 18.19 19.60 21.81 23.77 22.08 21.01 18.78 18.67 18.52 18.29 18.08 18.10 17.58 17.31 16.67 16.00 15.74 15.76 15.35 15.47 15.39 15.17
1.10 1.87 3.35 3.98 5.34 5.86 7.53 8.46 8.57 9.81 9.15 8.62 8.39 8.38 8.46 9.51 10.81 8.00 6.83 12.07 17.59 18.78 15.64 19.41 23.15 22.67 21.11 15.97 16.45 16.53 16.37 16.17 16.06 16.15 16.08 16.05 15.80 15.38 14.90 14.43 14.32 14.40 13.99 13.80
-0.27 0.62 2.06 5.28 5.95 5.59 4.94 7.62 8.46 9.73 8.26 8.90 8.41 8.53 8.20 7.73 8.91 11.09 11.48 14.51 19.04 16.46 15.09 20.07 20.69 21.04 18.21 14.20 14.02 13.89 14.69 15.18 15.61 16.13 17.00 17.52 15.14 15.02 14.47 13.79 13.13 13.44 14.23 13.19
-1.07 -0.74 2.06 3.29 2.96 4.14 5.62 7.22 7.88 8.57 8.62 8.35 7.94 8.35 8.19 10.02 8.53 10.70 10.58 11.28 15.39 13.92 10.80 16.98 19.38 18.04 12.63 12.57 13.48 13.42 13.21 13.14 13.10 13.10 13.05 12.81 12.55 12.39 12.44 12.25 11.62 10.89 10.14 10.05
-2.98 -1.20 1.22 1.41 2.17 4.89 6.42 8.32 4.39 6.27 9.13 7.18 7.60 7.97 8.88 9.67 9.97 10.43 10.39 13.22 10.21 12.26 9.02 9.57 14.12 11.01 11.35 12.20 11.45 11.12 11.02 12.06 11.02 11.76 10.75 10.28 10.36 10.26 10.09 9.87 9.61 8.35 7.39 6.49
-2.43 4.79 3.14 1.42 3.29 5.71 5.38 7.30 5.47 3.66 6.38 7.62 5.21 7.33 8.31 9.12 9.71 11.01 12.20 9.86 9.89 9.25 8.61 8.73 9.33 12.95 11.22 10.42 10.43 10.40 11.54 12.24 11.69 9.21 8.67 8.35 8.10 7.39 6.75 6.07 5.34 4.98 4.08 4.18
MSLP
1012.18 1012.08 1012.33 1013.63 1013.52 1012.83 1011.65 1011.90 1011.66 1014.27 1015.87 1017.50 1017.81 1017.69 1017.12 1016.73 1015.95 1015.31 1014.62 1013.96 1013.75 1013.26 1012.57 1011.66 1010.90 1010.30 1009.69 1008.99 1008.23 1007.40 1006.40 1005.49 1005.31 1005.79 1006.29 1006.92 1007.83 1008.87 1009.82 1010.70 1011.52 1012.33 1013.19 1014.11
1012.88 1013.34 1013.67 1014.82 1015.05 1015.19 1015.28 1015.62 1015.88 1016.60 1017.64 1018.67 1018.67 1018.25 1017.63 1017.34 1016.97 1016.58 1016.11 1015.30 1014.62 1014.12 1013.55 1012.69 1011.83 1010.97 1010.31 1009.55 1008.72 1007.97 1006.93 1006.02 1005.48 1005.62 1006.16 1006.58 1007.39 1008.31 1009.30 1010.18 1010.96 1011.88 1012.80 1013.67
1013.56 1013.70 1014.17 1015.76 1018.10 1018.53 1019.49 1019.70 1019.22 1019.47 1020.31 1019.66 1018.91 1018.60 1018.31 1018.36 1018.10 1017.71 1017.12 1016.45 1015.83 1015.13 1014.19 1013.33 1012.51 1011.89 1011.04 1010.38 1009.61 1008.69 1007.68 1006.61 1005.79 1005.60 1005.96 1006.39 1007.03 1007.92 1008.80 1009.69 1010.52 1011.39 1012.27 1013.24
1014.95 1014.97 1017.00 1019.90 1020.29 1020.40 1020.59 1021.52 1021.64 1021.59 1021.26 1020.68 1019.90 1019.37 1019.09 1019.10 1018.95 1018.33 1017.75 1017.11 1016.47 1015.71 1014.75 1013.67 1012.95 1012.36 1011.62 1010.87 1009.95 1009.14 1008.03 1007.14 1006.32 1006.10 1005.97 1006.26 1006.82 1007.49 1008.45 1009.37 1010.07 1010.90 1011.84 1012.58
1017.09 1018.53 1019.80 1020.18 1021.17 1021.75 1021.86 1022.89 1022.97 1022.71 1021.98 1021.22 1020.44 1018.99 1018.71 1019.03 1018.75 1018.34 1017.78 1017.11 1016.25 1015.33 1014.56 1013.83 1013.22 1012.61 1011.98 1011.12 1010.19 1009.29 1008.35 1007.54 1007.03 1006.71 1006.59 1006.49 1007.02 1007.58 1008.36 1009.19 1010.08 1010.90 1011.57 1012.20
1019.32 1020.44 1021.54 1021.90 1021.68 1021.52 1022.07 1023.14 1023.53 1023.01 1022.54 1022.05 1021.07 1020.08 1019.79 1019.83 1019.39 1018.43 1017.72 1017.10 1016.49 1015.67 1015.03 1014.35 1013.51 1012.90 1012.21 1011.35 1010.46 1009.59 1008.83 1008.18 1007.53 1007.03 1007.00 1007.00 1007.20 1007.70 1008.33 1008.99 1009.85 1010.70 1011.41 1011.98
1021.60 1022.57 1022.72 1022.73 1022.63 1022.39 1023.52 1025.28 1023.94 1023.87 1023.64 1023.11 1022.70 1022.39 1021.11 1020.24 1019.39 1018.98 1018.33 1017.64 1016.74 1016.05 1015.47 1014.78 1014.06 1013.26 1012.28 1011.39 1010.70 1009.98 1009.23 1008.42 1007.67 1007.24 1007.20 1007.31 1007.53 1007.86 1008.42 1009.29 1010.26 1010.98 1011.58 1012.22
1023.39 1023.86 1024.28 1023.59 1023.31 1024.09 1025.69 1025.29 1025.03 1024.49 1023.94 1023.21 1022.66 1022.33 1021.48 1020.53 1019.55 1018.40 1017.48 1016.57 1015.70 1015.11 1014.56 1014.13 1013.63 1013.10 1012.35 1011.58 1010.83 1010.13 1009.44 1008.58 1007.79 1007.47 1007.32 1007.58 1008.03 1008.44 1008.89 1009.49 1010.44 1011.14 1011.83 1012.45
1024.23 1024.52 1024.75 1024.83 1025.19 1025.63 1025.79 1025.77 1025.25 1024.73 1024.25 1023.95 1023.24 1022.46 1021.49 1020.70 1019.78 1018.85 1017.99 1016.86 1015.85 1015.14 1014.36 1013.92 1013.65 1013.22 1012.28 1011.42 1010.93 1010.12 1009.77 1008.65 1008.01 1007.89 1007.72 1007.88 1008.20 1008.81 1009.28 1009.80 1010.49 1011.12 1011.69 1012.23
1024.21 1024.71 1024.90 1025.42 1025.65 1025.87 1025.85 1025.88 1025.59 1025.22 1024.70 1024.17 1023.71 1022.92 1021.78 1020.77 1019.90 1018.99 1018.20 1017.40 1016.66 1015.78 1014.67 1014.02 1013.33 1012.62 1012.00 1011.38 1010.85 1010.40 1009.49 1008.70 1008.11 1008.12 1008.15 1008.18 1008.35 1008.71 1009.17 1009.57 1010.30 1010.83 1011.40 1012.05
1024.68 1024.87 1025.07 1025.14 1025.57 1025.89 1025.77 1025.44 1025.06 1024.78 1024.46 1024.05 1023.48 1022.64 1021.96 1020.97 1019.93 1019.19 1018.55 1017.49 1016.39 1015.75 1015.23 1014.40 1013.44 1012.86 1012.07 1011.29 1010.65 1010.02 1009.27 1008.51 1008.41 1008.17 1008.42 1008.49 1008.47 1008.54 1008.93 1009.41 1009.51 1010.01 1010.58 1011.31
1025.57 1025.76 1025.81 1025.55 1025.61 1025.65 1025.50 1025.46 1025.18 1024.70 1024.11 1023.71 1023.36 1022.73 1021.96 1021.22 1020.38 1019.27 1018.03 1016.92 1015.91 1015.13 1014.47 1014.06 1013.56 1013.51 1012.38 1011.03 1010.50 1010.02 1009.09 1008.54 1008.55 1008.47 1008.51 1008.71 1008.73 1008.89 1009.18 1009.52 1010.09 1010.55 1010.96 1011.23
1026.77 1026.35 1025.96 1025.77 1025.70 1025.64 1025.49 1025.31 1025.04 1024.79 1024.49 1024.00 1023.19 1022.60 1021.75 1020.85 1019.82 1018.49 1017.47 1016.50 1015.62 1014.92 1014.19 1013.50 1012.84 1012.46 1011.39 1010.65 1010.11 1009.47 1009.11 1008.67 1008.47 1008.56 1008.72 1008.85 1008.95 1009.04 1009.27 1009.90 1010.14 1010.64 1011.18 1011.62
1027.16 1026.59 1026.18 1026.11 1026.02 1025.83 1025.53 1025.23 1024.96 1024.67 1024.39 1024.03 1023.50 1022.73 1021.92 1020.93 1019.61 1018.52 1017.57 1016.75 1015.98 1015.19 1014.36 1013.60 1012.73 1012.04 1011.11 1010.42 1009.49 1009.20 1008.92 1008.65 1008.58 1008.73 1008.94 1008.99 1008.95 1009.18 1009.34 1009.54 1009.94 1010.64 1011.32 1011.70
1027.63 1027.28 1027.01 1026.65 1026.29 1025.94 1025.63 1025.25 1024.89 1024.51 1024.07 1023.62 1023.16 1022.65 1021.81 1020.81 1019.68 1018.61 1017.56 1016.62 1015.83 1014.95 1014.24 1013.57 1012.84 1011.75 1010.54 1009.82 1009.55 1009.04 1008.83 1008.63 1008.61 1008.75 1008.99 1009.08 1009.05 1009.29 1009.49 1009.77 1010.17 1010.71 1011.34 1011.88
1028.26 1027.65 1027.24 1026.87 1026.49 1026.11 1025.75 1025.41 1025.15 1024.73 1024.21 1023.59 1023.11 1022.39 1021.64 1020.69 1019.61 1018.46 1017.37 1016.43 1015.65 1014.74 1014.08 1013.28 1012.39 1011.51 1010.64 1009.96 1009.47 1009.03 1008.72 1008.54 1008.62 1008.76 1008.99 1009.02 1009.09 1009.18 1009.41 1009.98 1010.34 1010.63 1011.29 1012.00
1028.91 1028.04 1027.56 1027.19 1026.79 1026.33 1025.96 1025.56 1025.22 1024.85 1024.34 1023.75 1023.11 1022.43 1021.63 1020.74 1019.65 1018.59 1017.59 1016.70 1015.96 1015.22 1014.45 1013.63 1012.71 1011.74 1011.11 1010.54 1010.07 1009.41 1008.91 1008.72 1008.76 1008.97 1008.98 1009.07 1009.15 1009.33 1009.82 1010.59 1011.28 1011.62 1012.42 1013.02
1029.74 1029.00 1028.28 1027.75 1027.18 1026.58 1026.02 1025.55 1025.13 1024.69 1024.25 1023.74 1023.09 1022.45 1021.76 1021.00 1020.27 1019.24 1018.18 1017.16 1016.31 1015.50 1014.70 1013.96 1012.88 1012.20 1011.40 1010.71 1010.32 1009.89 1009.49 1009.41 1009.52 1009.58 1009.64 1009.88 1010.09 1010.40 1010.89 1011.51 1012.17 1012.58 1013.30 1014.51
1030.08 1029.37 1028.64 1027.94 1027.28 1026.71 1026.19 1025.65 1025.20 1024.72 1024.14 1023.62 1023.05 1022.50 1021.92 1021.20 1020.44 1019.53 1018.49 1017.65 1016.76 1015.79 1015.01 1014.15 1013.40 1012.81 1011.83 1010.90 1010.72 1010.32 1010.17 1010.16 1010.21 1010.33 1010.27 1010.50 1010.90 1011.45 1012.04 1012.70 1013.44 1014.22 1014.97 1015.84
1030.38 1029.64 1028.96 1028.22 1027.40 1026.78 1026.20 1025.69 1025.21 1024.72 1024.20 1023.67 1023.15 1022.58 1021.99 1021.38 1020.78 1020.00 1019.05 1018.31 1017.63 1016.53 1015.43 1014.42 1013.80 1013.11 1012.36 1011.61 1011.34 1011.15 1011.15 1011.09 1011.14 1011.37 1011.50 1011.77 1012.15 1012.76 1013.39 1014.01 1014.71 1015.60 1016.48 1017.36
1030.79 1029.95 1029.28 1028.51 1027.65 1026.88 1026.27 1025.74 1025.26 1024.77 1024.32 1023.83 1023.37 1022.90 1022.39 1021.79 1021.19 1020.44 1019.59 1018.77 1017.89 1016.74 1015.85 1014.83 1013.94 1013.45 1012.91 1012.60 1012.33 1012.13 1012.11 1012.11 1012.26 1012.57 1012.77 1013.11 1013.56 1014.08 1014.72 1015.51 1016.31 1017.10 1017.79 1018.58
1031.14 1030.39 1029.52 1028.68 1027.86 1027.12 1026.42 1025.83 1025.34 1024.84 1024.46 1024.11 1023.61 1023.13 1022.58 1022.04 1021.48 1020.83 1020.21 1019.68 1018.40 1017.13 1016.55 1015.52 1014.72 1014.09 1013.82 1013.59 1013.45 1013.35 1013.35 1013.33 1013.53 1013.87 1014.07 1014.44 1014.85 1015.37 1016.03 1016.72 1017.52 1018.47 1019.15 1019.74
1031.47 1030.70 1029.80 1028.85 1028.03 1027.37 1026.64 1026.04 1025.50 1025.02 1024.72 1024.43 1024.03 1023.55 1023.09 1022.61 1022.09 1021.53 1020.73 1019.93 1018.83 1018.11 1017.52 1016.45 1015.60 1015.19 1014.95 1014.90 1014.76 1014.72 1014.65 1014.69 1014.77 1015.01 1015.45 1015.69 1015.97 1016.53 1017.10 1017.71 1018.47 1019.34 1020.15 1020.66
1031.61 1030.85 1030.00 1029.01 1028.12 1027.47 1026.87 1026.25 1025.74 1025.31 1025.00 1024.69 1024.34 1023.99 1023.55 1022.95 1022.39 1021.97 1021.52 1020.77 1019.55 1019.04 1018.48 1017.36 1016.80 1016.40 1016.29 1016.18 1016.05 1016.02 1015.99 1016.02 1016.07 1016.15 1016.44 1016.88 1017.28 1017.87 1018.34 1018.84 1019.33 1020.27 1021.11 1021.51
1031.83 1031.09 1030.15 1029.29 1028.50 1027.80 1027.14 1026.57 1026.06 1025.61 1025.13 1024.81 1024.52 1024.15 1023.77 1023.33 1023.02 1022.29 1021.79 1021.31 1020.54 1019.98 1019.60 1018.83 1018.09 1017.78 1017.60 1017.40 1017.22 1017.17 1017.24 1017.31 1017.33 1017.45 1017.74 1018.27 1018.74 1019.10 1019.61 1020.14 1020.48 1021.16 1021.87 1022.25
1031.85 1031.09 1030.29 1029.55 1028.86 1028.04 1027.32 1026.65 1026.47 1026.10 1025.45 1025.13 1024.78 1024.49 1024.05 1023.57 1023.09 1022.60 1022.12 1021.61 1021.41 1020.91 1020.55 1020.11 1019.45 1019.26 1019.00 1018.75 1018.63 1018.57 1018.56 1018.55 1018.59 1018.82 1019.14 1019.52 1019.97 1020.37 1020.74 1021.15 1021.54 1022.07 1022.71 1022.95
1031.71 1030.65 1030.11 1029.61 1028.93 1028.25 1027.63 1027.06 1026.78 1026.49 1025.92 1025.44 1025.13 1024.74 1024.32 1023.88 1023.39 1022.88 1022.42 1022.25 1022.00 1021.75 1021.39 1021.08 1020.70 1020.26 1020.05 1019.91 1019.79 1019.71 1019.72 1019.80 1019.93 1020.18 1020.48 1020.74 1021.10 1021.48 1021.80 1022.11 1022.43 1022.83 1023.09 1023.17
Wind_Speed
8 8 16 18 18 20 20 13 7 6 9 12 12 13 11 12 13 15 16 17 16 16 16 16 16 14 13 12 12 13 10 5 13 11 14 14 14 15 14 15 15 15 15 14
7 8 14 17 21 19 17 16 13 7 6 13 10 10 11 12 15 16 17 17 17 16 16 16 17 16 15 14 14 13 11 8 7 11 11 11 12 14 14 14 14 14 14 14
2 3 4 8 15 9 6 11 6 10 7 15 15 15 6 10 13 15 16 17 16 16 16 15 15 15 15 15 13 12 10 9 5 7 10 11 13 15 15 15 14 14 14 14
2 4 7 4 6 10 11 7 8 6 10 13 14 13 4 9 14 15 17 17 16 13 14 15 14 14 14 14 12 11 10 7 6 3 7 7 12 14 13 12 14 13 13 13
4 4 1 0 4 3 1 3 6 9 13 16 17 12 4 14 17 15 14 14 14 14 15 15 14 14 13 13 12 11 9 8 6 4 4 8 9 11 10 10 10 10 11 13
4 5 4 5 7 4 5 3 10 11 14 15 17 7 2 17 18 17 15 14 14 15 13 12 14 13 12 12 12 10 10 10 7 4 4 6 10 10 9 10 10 8 10 10
4 3 3 4 8 3 3 4 10 6 10 11 7 6 16 17 16 15 14 14 14 12 11 12 12 11 12 11 11 11 12 11 7 4 3 4 6 6 10 10 9 8 8 7
2 5 2 7 2 7 6 4 5 5 5 10 11 13 13 15 16 17 18 18 15 12 12 12 12 10 11 11 11 12 12 10 6 3 3 5 7 6 8 10 9 9 8 7
4 4 3 3 6 2 1 3 4 7 8 7 12 14 15 13 14 14 15 14 14 13 15 13 11 10 12 11 11 11 11 9 5 3 4 6 9 9 8 8 8 8 8 8
2 3 9 4 4 3 3 3 4 6 9 8 8 11 13 12 11 12 13 13 12 12 13 14 13 13 10 11 10 10 9 8 3 4 4 5 5 6 7 8 8 8 8 8
3 5 1 3 7 1 6 6 8 8 8 8 9 10 9 12 13 11 12 13 11 10 9 12 12 12 11 10 8 9 7 2 2 2 3 4 4 6 6 4 9 10 9 10
3 4 3 4 5 8 8 7 9 10 11 10 7 10 11 11 10 11 10 10 10 12 10 10 8 9 10 8 6 7 4 1 2 2 3 3 5 5 8 10 12 13 13 11
4 9 7 4 6 9 8 9 10 6 7 10 11 10 11 12 10 14 11 10 10 11 12 11 9 9 7 7 6 4 3 2 1 3 3 5 5 6 7 8 14 15 16 18
9 8 3 5 6 8 9 9 10 7 6 7 8 10 9 10 12 11 11 11 10 10 8 9 9 9 8 7 6 4 3 8 2 3 3 4 5 5 6 7 8 7 15 15
11 7 5 7 6 6 6 7 9 9 10 10 8 8 9 11 12 12 11 11 11 8 9 9 9 11 10 8 6 4 3 2 3 2 3 5 5 6 6 7 8 8 8 13
11 7 7 7 8 8 7 8 7 9 9 10 9 11 12 11 11 11 11 11 11 11 12 12 10 10 10 9 7 3 2 6 5 3 4 4 5 6 7 7 8 8 8 9
9 11 11 10 9 9 8 7 7 7 8 9 11 11 10 10 9 10 11 11 10 10 10 11 12 9 8 6 6 4 1 2 8 3 3 4 4 6 7 8 9 9 9 13
10 9 9 7 8 8 9 8 8 8 8 9 10 9 8 8 9 10 11 12 9 7 9 11 11 10 8 5 5 4 3 3 5 5 6 8 8 9 10 11 11 12 12 15
11 11 11 10 8 7 7 8 8 8 8 8 9 9 8 7 8 9 10 10 12 11 12 10 16 12 10 7 6 4 4 5 6 5 8 14 10 9 10 11 11 11 11 11
12 11 11 11 10 8 8 8 8 7 7 8 8 8 9 9 9 10 9 7 11 10 12 13 9 8 9 8 10 5 6 7 8 7 7 8 10 10 11 16 13 11 10 10
12 11 12 11 10 9 8 7 7 7 7 7 8 8 8 8 9 9 10 8 14 14 15 18 11 6 5 7 8 6 7 7 7 7 8 8 10 10 11 11 10 9 9 9
11 11 12 11 9 8 8 8 7 6 6 7 7 8 8 8 9 9 7 8 8 21 12 9 7 13 8 13 6 7 7 8 7 7 8 9 9 10 10 10 10 8 8 8
10 11 11 11 10 8 8 7 8 6 6 5 7 8 7 6 5 7 8 12 7 14 9 8 15 15 15 7 6 7 7 8 8 8 7 8 9 9 9 9 9 8 7 6
10 11 10 10 8 6 9 9 7 7 4 5 5 6 6 6 5 3 6 13 16 14 11 12 13 16 13 6 6 6 6 7 7 7 9 13 8 8 8 8 8 7 6 7
10 10 8 8 7 6 8 8 5 7 5 5 5 6 6 5 3 5 6 5 14 10 8 16 18 17 7 7 7 6 6 6 6 7 8 7 7 7 7 6 6 6 4 4
9 7 6 6 5 6 6 5 2 5 5 6 4 5 5 5 6 5 4 9 7 10 6 7 6 7 6 6 7 7 7 7 7 7 8 7 7 6 6 5 5 5 3 2
6 12 4 7 7 7 7 7 6 7 7 5 4 5 5 5 6 7 9 6 5 6 6 6 6 7 5 6 6 6 6 6 9 6 6 6 5 5 4 4 4 3 2 1
Wind_Direction
119 124 67 40 25 19 47 13 47 69 80 14 0 347 0 7 4 7 5 7 2 356 349 352 352 352 349 349 345 340 332 268 204 193 198 188 177 182 181 183 182 183 182 185
200 150 82 53 26 30 23 12 34 54 83 5 355 344 358 13 7 8 1 356 352 349 344 346 348 344 341 341 338 331 328 318 226 195 193 184 173 179 176 180 179 180 183 182
19 190 282 21 7 48 66 25 346 28 325 337 350 352 70 23 13 1 352 349 345 340 337 335 339 335 333 331 326 323 320 324 286 202 187 181 169 176 180 180 175 180 180 180
319 4 51 134 77 99 96 47 26 347 342 341 333 317 266 35 8 352 344 339 334 330 330 331 329 329 326 323 322 320 319 324 333 250 185 154 169 177 176 174 176 178 177 180
89 53 251 78 59 332 13 82 21 348 344 343 336 305 230 3 349 339 334 328 325 329 323 326 325 326 323 320 321 321 320 326 329 319 216 155 168 168 167 164 170 169 176 176
30 95 138 224 297 272 238 169 14 355 346 346 344 9 309 339 329 326 327 326 324 322 324 319 321 321 318 319 319 318 321 316 309 303 199 182 157 159 161 165 164 164 171 180
15 88 304 269 295 296 63 288 339 338 330 333 337 297 300 311 316 315 315 316 315 319 314 313 313 314 313 316 314 316 312 305 295 283 185 162 146 144 148 147 149 158 158 160
46 63 306 345 10 91 228 302 304 320 308 319 312 304 305 312 315 320 319 319 323 323 321 320 316 316 310 307 309 312 308 296 288 238 149 132 136 132 142 143 144 145 140 142
135 212 220 347 120 251 63 258 312 314 320 311 304 311 312 311 313 314 314 314 318 318 317 314 313 310 306 305 308 308 301 289 264 224 152 147 141 143 137 141 147 152 157 155
126 46 138 134 96 53 261 232 285 303 309 305 300 303 303 307 312 316 310 309 308 309 315 311 312 310 302 299 301 294 293 288 236 173 155 143 140 147 148 150 151 155 156 156
96 31 359 188 49 356 342 337 330 328 319 316 312 311 308 309 309 306 299 298 301 303 297 297 305 301 299 299 299 298 286 267 237 171 153 142 139 151 154 168 170 164 169 163
338 25 299 300 356 354 340 338 331 326 330 326 319 313 314 305 302 295 296 314 310 306 305 302 305 283 288 302 297 289 276 230 207 141 139 142 138 124 152 156 170 175 169 163
340 326 287 307 322 351 331 333 322 331 315 317 317 317 315 312 311 330 324 322 321 312 311 309 307 303 297 303 301 290 271 227 222 153 153 152 156 152 146 169 171 173 176 173
354 337 349 7 329 331 327 324 321 296 292 307 306 312 314 314 317 328 330 325 322 319 306 307 311 308 306 300 318 288 268 258 164 158 171 169 159 156 154 162 159 163 181 168
347 345 323 317 320 324 321 323 334 331 329 329 327 312 322 327 326 322 320 326 325 328 338 321 314 318 325 329 310 282 260 253 137 159 175 179 161 162 160 154 152 153 152 153
332 327 331 336 333 335 334 335 335 329 326 322 322 328 322 315 312 314 322 332 342 341 334 334 327 326 327 332 330 306 259 201 181 175 190 184 175 170 153 152 153 146 149 146
346 349 347 344 338 335 330 321 317 315 314 321 322 318 318 320 319 334 331 332 327 322 323 332 327 332 327 334 334 322 322 264 137 88 94 90 101 101 97 91 91 92 90 103
338 336 335 321 324 326 328 329 330 326 326 317 317 319 322 331 324 324 329 328 324 320 347 338 338 349 331 343 353 1 32 69 94 100 103 102 101 100 104 106 103 101 101 106
336 338 334 334 326 324 321 325 329 324 325 327 330 329 318 316 332 331 334 354 354 355 352 336 356 348 345 17 31 15 37 80 90 96 106 108 100 98 100 97 93 89 91 93
335 336 333 331 329 331 325 324 320 323 329 332 334 344 348 351 346 346 345 351 352 339 350 345 355 348 355 13 51 43 55 68 79 81 91 94 97 99 98 96 97 95 96 96
332 330 331 332 325 326 324 321 325 327 329 336 345 346 339 338 349 342 358 357 349 350 354 352 355 1 4 32 34 44 55 66 72 83 89 89 93 91 92 90 91 94 97 97
336 331 329 330 326 328 331 328 330 334 343 351 350 350 350 353 357 346 337 347 339 355 352 342 356 22 36 41 32 45 59 71 77 81 87 94 95 96 94 94 94 91 93 97
330 327 325 328 328 321 320 335 336 342 356 360 357 351 347 337 340 353 341 335 349 356 352 341 16 32 40 29 36 47 58 66 77 83 86 91 94 98 102 103 101 103 104 106
329 327 320 322 325 339 344 340 336 342 337 338 347 344 342 341 333 350 330 339 347 15 359 3 22 37 43 27 38 46 54 67 76 85 91 89 88 91 92 99 99 103 111 107
324 314 315 333 339 335 330 331 334 342 334 342 346 342 337 338 324 331 345 346 353 20 359 360 25 35 27 31 41 53 60 63 68 73 76 78 79 83 83 85 87 89 83 83
319 310 309 318 314 317 323 327 357 342 348 340 343 346 342 337 331 356 350 9 0 13 3 352 16 26 20 38 42 47 49 58 64 73 73 73 75 76 78 78 77 84 98 105
315 341 347 342 341 342 345 0 4 342 335 323 317 340 342 340 339 2 12 3 4 2 8 6 358 27 34 42 40 43 50 70 85 75 72 75 75 78 83 85 88 93 92 90